219  
ASUS43 KMPX 180010  
RWRMN  
WEATHER ROUNDUP FOR MINNESOTA  
NATIONAL WEATHER SERVICE TWIN CITIES/CHANHASSEN MN  
700 PM CDT TUE JUL 17 2018  
 
NOTE: "FAIR" INDICATES FEW OR NO CLOUDS BELOW 12,000 FEET WITH NO  
SIGNIFICANT WEATHER AND/OR S TO VISIBILITY
. N/A MEANS  
CURRENT SKY AND/OR WEATHER CONDITIONS ARE NOT AVAILABLE.  
 
MNZ060>063-068>070-180100-  
TWIN CITIES METRO  
 
CITY SKY/WX TMP DP RH WIND PRES REMARKS
 
TWIN CITIES FAIR 78 53 41 E6 30.10S  
6HR MIN TEMP: 77; 6HR MAX TEMP: 81;  
 
ST PAUL FAIR 78 55 44 E5 30.10S  
CRYSTAL FAIR 80 53 39 NE7 30.09S  
BLAINE MOSUNNY 79 52 38 CALM 30.10S  
LAKEVILLE FAIR 79 61 53 SE3 30.11S  
EDEN PRAIRIE FAIR 80 55 42 W6 30.09S  
6HR MIN TEMP: 77; 6HR MAX TEMP: 82;  
 
SOUTH ST PAUL FAIR 79 49 34 CALM 30.10S  
LAKE ELMO N/A 77 55 47 E5 30.12S  

 
MNZ001>005-007-008-013>017-022>024-027-028-180100-  
NORTHWEST MINNESOTA  
 
CITY SKY/WX TMP DP RH WIND PRES REMARKS
 
BEMIDJI FAIR 75 53 45 CALM 30.12S  
HALLOCK FAIR 77 54 44 SE3 30.08S  
ROSEAU FAIR 75 57 53 CALM 30.10S  
WARROAD FAIR 75 59 57 SW5 30.09F  
THIEF RVR FALL FAIR 74 55 51 W5 30.12S  
CROOKSTON FAIR 75 54 46 CALM 30.11S  
FOSSTON FAIR 77 52 41 CALM 30.12S  
DETROIT LAKES FAIR 75 50 41 CALM 30.13S  
MOORHEAD FAIR 79 52 38 CALM 30.10F  
PARK RAPIDS FAIR 76 53 44 W5 30.12S  
MAHNOMEN FAIR 74 56 53 CALM 30.11F  

 
MNZ006-009>011-018-025>026-180100-  
NORTH CENTRAL MINNESOTA  
 
CITY SKY/WX TMP DP RH WIND PRES REMARKS
 
BAUDETTE FAIR 74 54 49 NW5 30.10F  
FLAG ISLAND FAIR 72 57 60 S6 30.07F  
INTL FALLS FAIR 74 56 53 NW7 30.10S  
6HR MIN TEMP: 69; 6HR MAX TEMP: 76;  
 
WASKISH FAIR 73 55 53 SW7 30.11S  
BIG FORK FAIR 73 55 53 SW3 30.11S  
LONGVILLE FAIR 73 54 49 CALM 30.13S  
GRAND RAPIDS N/A 74 53 48 CALM 30.13F  
ORR FAIR 73 48 40 W3 30.08F  
COOK FAIR 73 48 40 CALM 30.11F  
WALKER FAIR 73 55 53 CALM 30.12S  

 
MNZ012-019>021-037-180100-  
NORTHEAST MINNESOTA  
 
CITY SKY/WX TMP DP RH WIND PRES REMARKS
 
DULUTH FAIR 71 53 52 SE8 30.12S  
6HR MIN TEMP: 69; 6HR MAX TEMP: 74;  
 
ELY FAIR 72 48 43 CALM 30.11F  
HIBBING FAIR 72 50 45 W5 30.11F  
EVELETH FAIR 73 50 45 W5 30.12F  
DULUTH HARBOR FAIR 64 59 82 NE7 30.12S  
TWO HARBORS N/A 68 52 56 CALM 30.10F  
SILVER BAY FAIR 66 52 59 CALM 30.11S  
GRAND MARAIS N/A 55 50 83 SW6 30.12F  
G MARAIS ARPRT FAIR 59 46 63 S6 30.15S  

 
MNZ029>031-032-039>041-046>048-054>057-064-180100-  
WEST CENTRAL MINNESOTA  
 
CITY SKY/WX TMP DP RH WIND PRES REMARKS
 
FERGUS FALLS FAIR 77 54 44 CALM 30.10F  
WHEATON SUNNY 75 61 60 CALM 30.11S  
MORRIS SUNNY 81 59 47 CALM 30.10S  
ALEXANDRIA FAIR 80 54 40 NW3 30.14S  
ELBOW LAKE FAIR 76 56 49 CALM 30.11F  
WADENA FAIR 75 55 50 CALM 30.12S  
GLENWOOD FAIR 79 54 41 N5 30.13S  
BENSON SUNNY 79 59 50 CALM 30.12S  
ORTONVILLE MOSUNNY 81 61 50 E3 30.09F  
MADISON SUNNY 82 63 51 CALM 30.10S  
WILLMAR FAIR 77 59 53 CALM 30.14R  

 
MNZ033>034-036-042>043-049>051-058-059-180100-  
CENTRAL MINNESOTA  
 
CITY SKY/WX TMP DP RH WIND PRES REMARKS
 
ST CLOUD FAIR 78 54 43 VRB3 30.11S  
6HR MIN TEMP: 74; 6HR MAX TEMP: 79;  
 
SAUK CENTRE FAIR 77 53 42 CALM 30.12S  
PAYNESVILLE FAIR 78 55 45 CALM 30.12S  
AITKIN FAIR 72 54 53 W3 30.11S  
PINE RIVER FAIR 72 55 56 CALM 30.15S  
BRAINERD FAIR 77 54 44 NE3 30.12F  
STAPLES FAIR 75 50 41 CALM 30.12S  
LITTLE FALLS FAIR 75 54 46 S3 30.12F  
LITCHFIELD FAIR 79 57 47 CALM 30.12S  
BUFFALO FAIR 77 51 39 SE3 30.12S  
MAPLE LAKE FAIR 78 59 53 CALM 30.12S  
HUTCHINSON FAIR 79 58 48 CALM 30.13R  

 
MNZ037-044-045-052-053-180100-  
EAST CENTRAL MINNESOTA  
 
CITY SKY/WX TMP DP RH WIND PRES REMARKS
 
PRINCETON FAIR 79 55 44 CALM 30.12S  
MORA FAIR 73 50 43 CALM 30.14S  
CAMBRIDGE FAIR 79 57 47 N3 30.11F  
RUSH CITY FAIR 75 54 46 CALM 30.12S HAZE  
MOOSE LAKE FAIR 73 52 46 CALM 30.10F  
HINCKLEY FAIR 75 54 46 E3 30.11F  
CLOQUET FAIR 72 48 43 CALM 30.12S  
MCGREGOR FAIR 75 54 46 CALM 30.12F  

 
MNZ071>073-080-081-089-090-097-098-180100-  
SOUTHWEST MINNESOTA  
 
CITY SKY/WX TMP DP RH WIND PRES REMARKS
 
MONTEVIDEO MOSUNNY 82 61 47 SW3 30.11S  
GRANITE FALLS SUNNY 81 61 51 CALM 30.11S  
CANBY SUNNY 83 64 53 SE5 30.11F  
MARSHALL MOSUNNY 80 61 52 SE5 30.10F  
REDWOOD FALLS SUNNY 80 62 54 E5 30.10S  
OLIVIA MOSUNNY 79 61 53 CALM 30.11S  
PIPESTONE MOSUNNY 81 64 57 SE3 30.11F  
WINDOM SUNNY 81 72 74 CALM 30.10F  
WORTHINGTON MOSUNNY 81 63 54 E6 30.11F  
JACKSON SUNNY 79 61 53 CALM 30.12S  
TRACY CLOUDY 81 63 54 E3 30.11S  
SLAYTON HVY RAIN 79 60 51 SE5 30.13S  

 
MNZ065>067-074>077-082>085-091>093-180100-  
SOUTH CENTRAL MINNESOTA  
 
CITY SKY/WX TMP DP RH WIND PRES REMARKS
 
MANKATO FAIR 79 59 50 NE5 30.11S  
NEW ULM SUNNY 79 57 47 CALM 30.10F  
ST JAMES SUNNY 81 61 50 CALM 30.11S  
FAIRMONT SUNNY 81 62 52 CALM 30.11S  
GLENCOE FAIR 78 56 46 CALM 30.11S  
FARIBAULT FAIR 77 57 50 CALM 30.12S HAZE  
OWATONNA FAIR 77 57 50 NE3 30.11F  
WASECA FAIR 77 57 50 N5 30.12F  
ALBERT LEA FAIR 79 57 47 N5 30.11S  

 
MNZ078>079-086>088-094>096-180100-  
SOUTHEAST MINNESOTA  
 
CITY SKY/WX TMP DP RH WIND PRES REMARKS
 
ROCHESTER FAIR 75 57 53 NE7 30.12S  
6HR MIN TEMP: 75; 6HR MAX TEMP: 79;  
 
RED WING FAIR 79 52 38 N3 30.09S  
STANTON FAIR 78 54 43 CALM 30.10S  
DODGE CENTER FAIR 75 55 50 CALM 30.12S  
WINONA FAIR 77 54 44 NW3 30.10S  
AUSTIN FAIR 79 57 47 NE5 30.10S  
PRESTON FAIR 74 57 53 NE5 30.12S  

 
ABBREVIATIONS USED IN REMARKS  
TC - TEMPERATURES IN CELSIUS  
WCI - WIND CHILL INDEX  
HX - HEAT INDEX  
VSB - VISIBILITY  

 
 
 
CLICK HERE TO GO TO PREVIOUS BULLETINS.

The Nexlab MN Page Main Text Page